Skip Page Navigation
NASA JPL Caltech
NASA Logo - Jet Propulsion Laboratory + View the NASA Portal
+ Center for Near-Earth Object Studies
JPL Home Earth Solar System Stars & Galaxies Technology
JPL Solar System Dynamics
BODIES ORBITS EPHEMERIDES TOOLS PHYSICAL DATA DISCOVERY FAQ SITE MAP
JPL Small-Body Database Browser
Search: [ help ]  
442969 (2013 CV135)
Classification: Main-belt Asteroid          SPK-ID: 2442969
Ephemeris | Orbit Diagram | Orbital Elements | Mission Design | Physical Parameters | Discovery Circumstances ]

[ show orbit diagram ]
Orbital Elements at Epoch 2459000.5 (2020-May-31.0) TDB
Reference: JPL 6 (heliocentric ecliptic J2000)
 Element Value Uncertainty (1-sigma)   Units 
e .13439376726677 3.5097e-07  
a 2.568707098371363 3.5013e-08 au
q 2.223488874416342 9.017e-07 au
i 13.45039708263323 1.202e-05 deg
node 54.46595092250313 6.874e-05 deg
peri 106.6838352221829 8.9043e-05 deg
M 255.0752485813772 5.4131e-05 deg
tp 2459438.774046784443
(2021-Aug-12.27404678)
0.00022597 TDB
period 1503.731528635251
4.12
3.0745e-05
8.418e-08
d
yr
n .2394044369919722 4.8948e-09 deg/d
Q 2.913925322326385 3.9718e-08 au
  Orbit Determination Parameters
   # obs. used (total)      74  
   data-arc span      7748 days (21.21 yr)  
   first obs. used      1995-11-14  
   last obs. used      2017-01-30  
   planetary ephem.      DE431  
   SB-pert. ephem.      SB431-N16  
   condition code      0  
   norm. resid. RMS      .5697  
   source      ORB  
   producer      Otto Matic  
   solution date      2017-Apr-09 12:23:28  

Additional Information
 Earth MOID = 1.27192 au 
 Jupiter MOID = 2.16092 au 
 T_jup = 3.380 
[ show covariance matrix ]

Ephemeris | Orbit Diagram | Orbital Elements | Mission Design | Physical Parameters | Discovery Circumstances ]

Physical Parameter Table
Parameter Symbol Value Units Sigma Reference Notes
absolute magnitude H 16.7   n/a MPO456097  

442969 (2013 CV135)          Discovered 1995-Nov-14 by Spacewatch at Kitt Peak
Reference: Last Updated: 2015-09-02

Alternate Designations
 2013 CV135 = 1995 VG8 
Ephemeris | Orbit Diagram | Orbital Elements | Mission Design | Physical Parameters | Discovery Circumstances ]
ABOUT SSD CREDITS/AWARDS PRIVACY/COPYRIGHT GLOSSARY LINKS
FirstGov 2020-Jul-04 07:22 UT
(server date/time)  
NASA Home Page
Site Manager:   Ryan S. Park
Webmaster  Alan B. Chamberlin